Terminal Aerodrome Forecast
Issued by NWS

Home | Current Version | Previous Version | Text Only | Print | Product List | Glossary On
Versions: 1 2 3 4 5 6 7 8 9 10 11 12 13 14 15 16 17 18 19
000
FTUS44 KEWX 110314 AAB
TAFSSF
TAF AMD
KSSF 110314Z 1103/1124 00000KT 2SM -RA BR OVC005
     FM111400 20005KT P6SM OVC009
     FM111800 21007KT P6SM BKN012
     FM112300 19005KT P6SM SCT030=

USA.gov is the U.S. government's official web portal to all federal, state and local government web resources and services.